Wind_Speed
7 8 8 8 8 8 9 9 10 10 10 10 11 11 11 12 12 13 13 14 15 15 16 16 17 17 18 17 18 18 19 19 20 20 20 21 21 22
7 8 8 8 9 9 10 10 10 10 11 12 12 12 13 13 14 14 15 15 16 16 17 17 17 18 18 18 18 19 20 20 21 21 20 21 21 21
8 8 8 8 9 10 11 11 11 12 13 13 14 14 15 15 15 15 16 16 16 17 17 18 18 19 19 20 20 21 21 22 22 22 23 22 22 22
9 9 9 9 10 11 11 12 12 13 14 14 15 16 16 17 17 17 17 18 18 18 19 19 20 20 20 20 21 21 22 22 23 23 23 23 23 23
9 9 9 10 11 12 12 13 14 15 15 16 16 17 18 19 19 19 19 20 20 20 21 21 21 21 21 21 21 22 22 23 23 24 24 24 24 24
10 10 10 11 12 13 14 15 15 16 17 18 18 19 19 20 20 20 21 21 22 22 22 22 22 22 21 21 22 22 23 23 24 24 25 25 25 25
11 12 12 12 14 15 16 16 16 17 18 19 20 21 21 21 21 22 22 23 23 23 23 23 22 23 23 23 23 23 23 24 25 25 25 25 25 25
13 13 14 15 16 17 18 17 18 18 20 21 22 22 23 23 23 23 23 23 23 24 24 24 24 25 25 25 25 25 25 25 25 25 26 25 25 25
14 15 16 17 18 18 19 19 19 20 21 22 23 24 25 24 24 24 24 24 25 25 26 26 26 25 25 25 26 27 27 27 26 26 26 26 25 25
17 17 18 19 19 21 21 21 22 23 23 24 24 25 25 26 26 26 26 26 27 28 28 28 27 27 26 26 27 28 28 28 28 27 26 26 25 24
19 19 20 21 22 22 23 24 24 25 26 26 26 26 26 27 27 27 28 29 29 30 31 30 29 28 28 28 28 29 29 29 29 28 27 26 25 24
21 22 23 23 24 24 25 25 25 26 27 27 28 27 27 28 29 29 30 30 31 31 31 32 31 30 29 29 29 29 29 29 29 28 27 26 26 25
23 23 24 24 25 26 27 27 27 28 28 29 29 29 29 29 30 30 31 32 32 32 32 33 32 31 30 29 30 30 29 28 28 28 27 26 26 26
25 25 25 26 27 27 28 28 29 29 29 30 30 30 30 30 30 30 31 33 34 33 33 32 31 31 31 30 30 30 30 29 28 27 27 27 27 27
26 27 27 27 28 29 29 29 30 30 30 30 30 31 30 30 30 31 32 33 33 33 33 32 32 32 32 31 31 30 30 30 29 28 28 28 27 27
28 28 29 29 29 29 29 29 30 30 31 31 31 31 31 31 31 32 33 33 33 33 32 32 32 32 32 32 31 30 30 30 29 29 28 27 27 27
29 29 29 30 30 30 30 30 31 31 30 30 31 31 32 32 32 33 33 33 33 33 32 32 32 32 32 31 30 30 29 29 30 29 28 28 28 28
29 29 30 30 30 30 31 31 31 31 30 30 31 32 32 33 33 32 33 33 33 32 31 31 31 31 30 30 31 30 29 29 29 29 29 29 28 28
30 31 31 31 31 30 30 30 31 31 31 31 32 32 32 33 33 32 33 33 32 32 31 31 31 30 30 30 30 30 30 30 30 30 30 29 29 28
32 32 32 31 31 30 30 31 31 31 32 32 32 33 33 33 32 32 32 32 31 32 31 30 30 30 31 30 30 30 30 30 30 30 29 28 28 27
32 31 31 31 31 31 30 30 31 31 31 32 32 33 33 32 32 32 31 31 31 30 30 29 29 30 30 30 29 29 29 29 29 29 28 27 27 26
31 31 31 32 31 31 30 31 31 31 31 32 32 32 32 32 31 31 31 31 31 30 30 29 28 29 29 30 29 28 28 28 28 28 27 27 27 26
31 32 32 32 32 31 32 32 31 31 32 32 32 32 31 30 30 31 32 32 32 31 31 29 29 29 29 29 29 28 28 28 28 28 27 26 26 26
Wind_Direction
324 328 330 334 335 334 332 328 330 330 329 327 324 322 321 319 318 316 314 313 311 311 311 311 311 310 309 308 307 305 303 302 300 299 299 298 296 293
322 325 330 337 340 331 331 329 328 328 328 329 325 323 318 315 314 313 314 313 313 313 311 310 311 311 309 307 307 308 307 304 302 301 301 300 299 296
320 322 325 327 327 326 326 325 324 324 325 326 325 323 321 319 317 315 313 312 311 311 310 310 309 309 309 307 307 308 307 305 303 302 302 301 299 297
316 317 317 318 320 322 322 321 321 320 321 322 324 323 321 318 317 316 313 312 312 311 310 310 308 307 307 306 307 307 306 305 304 302 301 300 299 297
318 316 314 316 318 319 322 322 322 322 320 320 319 319 319 316 315 315 312 313 313 311 310 309 309 308 306 305 306 306 305 305 305 304 302 300 298 297
319 316 312 314 315 317 318 320 321 321 319 319 317 317 316 315 315 315 314 312 312 311 311 311 309 309 309 308 306 306 306 305 305 305 304 302 299 296
314 313 312 313 314 315 318 318 317 318 318 318 318 317 317 314 314 314 314 313 311 311 310 309 308 308 308 308 307 306 306 305 303 303 303 302 300 297
308 307 308 310 312 313 315 315 314 315 316 317 317 316 317 316 314 314 313 312 312 311 310 309 308 308 306 305 305 305 305 304 304 303 303 302 300 298
304 304 304 306 308 310 311 311 310 312 313 314 315 315 315 315 313 312 311 309 309 308 308 307 305 306 305 304 303 303 303 304 303 302 302 301 299 298
301 301 302 305 307 307 308 309 309 310 310 311 312 313 313 313 312 311 309 308 307 306 306 306 305 304 303 303 302 301 302 302 301 301 302 301 299 298
300 300 301 302 304 305 306 307 308 309 310 310 310 310 310 310 310 309 309 308 308 307 307 306 304 304 303 303 302 301 300 301 300 300 299 298 296 296
297 298 299 300 301 303 305 305 306 307 308 308 308 308 308 307 307 307 307 308 308 307 306 305 303 302 302 302 302 301 300 301 300 299 297 295 293 292
296 297 297 298 299 301 303 303 304 305 306 307 308 308 308 307 306 306 306 306 306 306 305 305 304 302 302 302 302 302 301 300 299 298 297 295 292 290
297 297 297 298 298 300 302 302 303 304 304 305 306 307 307 306 306 306 306 306 306 305 305 304 303 302 301 301 302 302 301 299 298 297 296 295 292 289
298 297 297 298 297 298 301 303 302 302 303 305 305 306 307 307 307 307 307 306 306 306 305 303 302 301 300 300 300 300 300 299 298 297 295 294 292 288
297 299 298 297 296 297 298 300 302 302 302 304 305 306 308 308 308 308 308 307 306 305 304 303 303 301 300 299 298 299 298 298 298 297 294 293 292 289
296 297 297 297 296 296 296 298 299 300 301 302 304 306 307 307 308 308 308 307 307 306 304 303 302 303 302 301 298 297 298 298 297 295 293 293 292 291
294 294 296 297 296 296 296 297 298 299 302 304 305 306 306 307 307 307 307 306 308 307 306 304 303 303 302 300 300 300 299 300 298 296 295 294 293 291
294 295 296 296 296 296 296 297 298 299 301 303 304 305 307 308 308 308 308 306 305 306 306 307 306 305 304 302 301 301 301 301 300 298 296 294 293 291
292 293 295 296 296 296 297 298 299 300 301 302 304 305 307 308 308 309 308 306 306 307 307 307 307 307 307 306 304 302 302 302 302 300 297 293 292 290
291 292 294 296 296 298 300 300 299 300 302 304 304 306 307 308 307 308 308 307 307 308 308 307 306 306 307 306 304 304 304 305 304 303 300 295 293 290
290 291 293 296 297 298 299 299 299 300 302 304 305 306 306 306 306 307 308 308 308 309 310 309 308 307 307 306 304 304 304 304 305 305 304 301 298 294
292 291 293 295 295 296 297 297 298 299 301 303 305 305 305 305 305 306 307 307 306 307 308 308 307 307 307 306 305 305 305 304 304 303 303 302 300 297
Height
5881 5881 5880 5879 5878 5877 5876 5875 5874 5873 5872 5870 5868 5867 5866 5865 5864 5862 5861 5860 5858 5857 5855 5854 5852 5850 5848 5847 5845 5843 5841 5840 5838 5836 5834 5832 5830 5828
5880 5879 5878 5878 5877 5876 5875 5873 5872 5871 5870 5868 5867 5865 5864 5862 5861 5860 5858 5856 5855 5853 5852 5850 5848 5846 5844 5842 5841 5839 5837 5835 5833 5831 5828 5826 5824 5822
5878 5877 5876 5876 5875 5874 5873 5872 5870 5869 5868 5867 5865 5863 5861 5860 5858 5856 5855 5853 5851 5850 5848 5846 5844 5842 5840 5838 5836 5834 5832 5829 5827 5825 5823 5821 5818 5816
5876 5875 5875 5874 5873 5872 5871 5870 5868 5867 5866 5864 5863 5861 5859 5857 5855 5853 5851 5849 5848 5845 5843 5841 5839 5837 5835 5832 5830 5828 5826 5824 5821 5819 5817 5814 5812 5810
5874 5873 5873 5872 5871 5870 5869 5868 5866 5865 5863 5861 5860 5858 5856 5854 5851 5849 5847 5845 5843 5841 5839 5837 5834 5832 5830 5827 5825 5823 5820 5818 5816 5813 5810 5808 5805 5803
5872 5871 5871 5870 5869 5868 5866 5865 5863 5862 5860 5858 5856 5854 5852 5849 5847 5845 5842 5840 5838 5836 5834 5832 5829 5827 5824 5822 5820 5817 5814 5812 5809 5807 5804 5801 5799 5796
5870 5869 5868 5867 5866 5865 5863 5862 5860 5858 5856 5854 5852 5850 5847 5845 5843 5840 5838 5835 5833 5831 5828 5826 5824 5821 5819 5816 5813 5811 5808 5805 5803 5800 5797 5794 5792 5789
5868 5867 5865 5864 5863 5862 5860 5858 5856 5854 5852 5850 5848 5845 5842 5840 5837 5835 5832 5830 5828 5826 5823 5821 5818 5815 5812 5810 5807 5804 5801 5799 5796 5793 5790 5787 5785 5782
5865 5863 5862 5861 5859 5858 5856 5854 5852 5849 5847 5845 5843 5840 5837 5835 5832 5829 5827 5824 5822 5819 5817 5814 5811 5808 5806 5802 5800 5797 5794 5791 5788 5785 5782 5779 5777 5775
5861 5859 5858 5857 5855 5853 5851 5849 5847 5845 5843 5840 5838 5835 5832 5829 5826 5824 5821 5818 5815 5812 5809 5807 5804 5801 5798 5795 5792 5789 5786 5783 5780 5777 5774 5772 5769 5767
5857 5855 5854 5852 5851 5848 5847 5845 5842 5840 5837 5834 5832 5829 5826 5823 5820 5818 5814 5811 5808 5805 5802 5799 5796 5793 5791 5788 5785 5781 5778 5775 5772 5769 5766 5764 5761 5759
5852 5850 5849 5847 5845 5843 5841 5839 5836 5834 5831 5828 5826 5823 5820 5816 5813 5810 5807 5804 5801 5798 5795 5791 5788 5785 5783 5780 5776 5773 5770 5767 5764 5761 5758 5756 5753 5751
5846 5845 5843 5841 5839 5837 5835 5833 5830 5827 5825 5822 5819 5816 5813 5809 5806 5803 5800 5797 5793 5790 5786 5783 5780 5776 5774 5771 5768 5765 5761 5758 5755 5752 5749 5747 5745 5743
5840 5838 5836 5834 5832 5830 5828 5826 5823 5821 5818 5815 5812 5808 5805 5802 5799 5795 5792 5788 5785 5781 5778 5774 5770 5767 5764 5762 5759 5756 5752 5749 5746 5744 5741 5739 5736 5734
5833 5831 5829 5827 5825 5823 5821 5818 5816 5813 5810 5807 5804 5801 5798 5794 5791 5788 5784 5780 5776 5772 5769 5765 5761 5758 5755 5753 5750 5747 5744 5741 5738 5735 5732 5730 5728 5726
5826 5824 5822 5820 5818 5816 5813 5811 5808 5805 5802 5800 5797 5794 5790 5787 5783 5780 5776 5772 5768 5765 5760 5757 5753 5750 5746 5743 5741 5738 5735 5732 5729 5726 5723 5721 5719 5717
5819 5817 5815 5812 5810 5808 5805 5803 5800 5797 5794 5791 5788 5785 5782 5778 5775 5771 5767 5763 5760 5756 5752 5748 5744 5741 5737 5734 5731 5729 5726 5723 5720 5717 5714 5712 5710 5708
5810 5808 5806 5804 5802 5799 5797 5794 5792 5789 5786 5782 5780 5777 5773 5769 5766 5762 5758 5755 5751 5747 5744 5740 5736 5733 5729 5725 5723 5720 5717 5714 5711 5708 5706 5703 5702 5700
5802 5800 5798 5795 5793 5791 5788 5786 5783 5780 5778 5774 5771 5768 5764 5761 5757 5753 5750 5746 5742 5739 5735 5732 5728 5724 5721 5718 5715 5711 5708 5705 5702 5699 5697 5694 5692 5690
5793 5791 5789 5786 5784 5782 5780 5777 5774 5772 5769 5766 5762 5759 5755 5752 5748 5744 5741 5737 5734 5730 5727 5723 5719 5716 5713 5710 5706 5703 5699 5696 5693 5690 5687 5685 5682 5680
5785 5783 5781 5778 5775 5773 5771 5768 5766 5763 5760 5757 5753 5750 5746 5743 5739 5736 5732 5729 5725 5721 5718 5715 5711 5707 5704 5701 5698 5695 5691 5688 5684 5681 5678 5676 5673 5671
5776 5774 5772 5769 5767 5764 5762 5759 5757 5754 5751 5748 5745 5741 5738 5734 5730 5727 5724 5720 5717 5713 5710 5706 5703 5699 5696 5693 5689 5687 5684 5680 5677 5673 5670 5667 5665 5662
5767 5765 5763 5760 5758 5755 5753 5751 5748 5745 5742 5739 5736 5732 5729 5725 5722 5719 5715 5712 5708 5705 5701 5698 5694 5691 5688 5685 5681 5678 5676 5673 5669 5666 5663 5660 5657 5654